Regional Weather Roundup
Issued by NWS

Home | Current Version | Previous Version | Text Only | Print | Product List | Glossary Off
Versions: 1 2 3 4 5 6 7 8 9 10 11 12 13 14 15 16 17 18 19 20 21 22 23 24 25 26 27 28 29 30 31 32 33 34 35 36 37 38 39 40 41 42 43 44 45 46 47 48 49 50

000
ASUS43 KOAX 251810
RWRNE

WEATHER ROUNDUP FOR NEBRASKA
NATIONAL WEATHER SERVICE OMAHA NE
100 PM CDT THU MAY 25 2017

NOTES: SATELLITE DATA IS BEING USED TO AUGMENT CLOUD COVER ABOVE
       12000 FEET.
       "FAIR" INDICATES FEW OR NO CLOUDS BELOW 12,000 FEET WITH NO
       SIGNIFICANT WEATHER AND/OR OBSTRUCTIONS TO VISIBILITY.

  * THESE STATIONS DO NOT REPORT WEATHER SUCH AS RAIN...SNOW OR FOG.

NEZ001>004-019>022-054>056-251900-
NEBRASKA PANHANDLE

CITY           SKY/WX    TMP DP  RH WIND       PRES   REMARKS
SCOTTSBLUFF    CLOUDY    68  44  42 W8        29.58R
6HR MIN TEMP:  54; 6HR MAX TEMP:  69;

ALLIANCE       CLOUDY    66  45  46 N12       29.56S
6HR MIN TEMP:  50; 6HR MAX TEMP:  67;

CHADRON        PTSUNNY   64  45  49 S6        29.55F
6HR MIN TEMP:  54; 6HR MAX TEMP:  65;

GORDON         FAIR      65  38  36 NW5       29.56S
6HR MIN TEMP:  54; 6HR MAX TEMP:  66;

KIMBALL        CLOUDY    65  47  50 NW18G25   29.62R
SIDNEY         MOSUNNY   69  50  50 NE10      29.59R
6HR MIN TEMP:  57; 6HR MAX TEMP:  72; 6HR PCP: TRACE;

$$

NEZ057>060-069>072-079>082-251900-
SOUTHWEST NEBRASKA

CITY           SKY/WX    TMP DP  RH WIND       PRES   REMARKS
NORTH PLATTE   SUNNY     67  51  56 CALM      29.54R
6HR MIN TEMP:  50; 6HR MAX TEMP:  69;

IMPERIAL       MOSUNNY   74  53  48 NE12G17   29.52S
6HR MIN TEMP:  51; 6HR MAX TEMP:  76;

LEXINGTON      PTSUNNY   67  51  57 S3        29.51F
MCCOOK         SUNNY     76  53  44 E8        29.50R
6HR MIN TEMP:  47; 6HR MAX TEMP:  76;

OGALLALA       MOSUNNY   74  52  45 NE7       29.54R
$$

NEZ005>010-023>029-035>040-094-251900-
NORTH CENTRAL NEBRASKA

CITY           SKY/WX    TMP DP  RH WIND       PRES   REMARKS
VALENTINE      CLOUDY    66  47  50 N9        29.53R
6HR MIN TEMP:  54; 6HR MAX TEMP:  67;

AINSWORTH      CLOUDY    66  53  61 N3        29.52S
BROKEN BOW     CLOUDY    63  50  62 SE13G25   29.50F
6HR MIN TEMP:  51; 6HR MAX TEMP:  65; 6HR PCP: TRACE;

O`NEILL        CLOUDY    65  51  61 SW14      29.53R
ORD            CLOUDY    64  48  56 S14       29.52S
6HR MIN TEMP:  52; 6HR MAX TEMP:  64; 6HR PCP: TRACE;

THEDFORD       CLOUDY    69  52  54 CALM      29.53S
$$

NEZ041-046>049-061>064-073>077-083>087-251900-
SOUTH CENTRAL NEBRASKA

CITY           SKY/WX    TMP DP  RH WIND       PRES   REMARKS
GRAND ISLAND   SUNNY     70  50  49 S21G29    29.54R
6HR MIN TEMP:  53; 6HR MAX TEMP:  71;

AURORA         CLOUDY    71  49  45 S21G28    29.54S
HASTINGS       SUNNY     69  50  50 S17G25    29.53F
6HR MIN TEMP:  53; 6HR MAX TEMP:  69;

HEBRON         SUNNY     73  50  44 S16G23    29.57F
HOLDREGE       SUNNY     66  47  50 S9        29.52F
KEARNEY *      SUNNY     72  50  46 SE17G23   29.51F
YORK           SUNNY     72  46  40 S21G30    29.54F
$$

NEZ011>018-030>034-042>045-251900-
NORTHEAST NEBRASKA

CITY           SKY/WX    TMP DP  RH WIND       PRES   REMARKS
NORFOLK        PTSUNNY   70  46  42 S18G25    29.54S
6HR MIN TEMP:  53; 6HR MAX TEMP:  71;

ALBION         CLOUDY    66  46  48 S15G25    29.54F
BLAIR          SUNNY     71  49  46 S17G26    29.59F
FREMONT        SUNNY     71  48  43 SE22G32   29.57F
TEKAMAH        SUNNY     71  52  50 S21G30    29.57F
6HR MIN TEMP:  51; 6HR MAX TEMP:  71; 6HR PCP: TRACE;

WAYNE          CLOUDY    71  47  41 S22G30    29.57R
$$

NEZ050>053-065>068-078-088>093-251900-
SOUTHEAST NEBRASKA

CITY           SKY/WX    TMP DP  RH WIND       PRES   REMARKS
LINCOLN        SUNNY     75  49  39 S21G28    29.58F
6HR MIN TEMP:  52; 6HR MAX TEMP:  75; 6HR PCP: TRACE;

OMAHA EPPLEY   MOSUNNY   71  49  45 S18       29.61F
6HR MIN TEMP:  53; 6HR MAX TEMP:  72;

BEATRICE       SUNNY     72  51  47 S16G23    29.59F
FALLS CITY     SUNNY     71  51  49 S12G24    29.63S
6HR MIN TEMP:  49; 6HR MAX TEMP:  72;

NEBRASKA CITY  CLOUDY    73  43  35 S17G25    29.64S
PLATTSMOUTH    SUNNY     72  49  44 SE14G22   29.62F
$$

NEZ044-045-051>053-067-251900-
OMAHA AREA

CITY           SKY/WX    TMP DP  RH WIND       PRES   REMARKS
OMAHA EPPLEY   MOSUNNY   71  49  45 S18       29.61F
6HR MIN TEMP:  53; 6HR MAX TEMP:  72;

BLAIR          SUNNY     71  49  46 S17G26    29.59F
FREMONT        SUNNY     71  48  43 SE22G32   29.57F
MILLARD        SUNNY     73  53  50 SE15      29.61F
OFFUTT AFB     SUNNY     71  49  45 SE17G25   29.61F
PLATTSMOUTH    SUNNY     72  49  44 SE14G22   29.62F
WAHOO          FAIR      72  46  39 S21G30    29.58F
$$




USA.gov is the U.S. government's official web portal to all federal, state and local government web resources and services.